Location: Asheville, NC
(35.6000°N, 82.5500°W)
Time: 06:28:20
(UTC-04:00)

Oscar 11 - Visible Passes

Search period start: 22 July 2018 00:00
Search period end: 01 August 2018 00:00
Orbit: 614 x 625 km, 97.6° (Epoch: 21 July)

Date Brightness Start Highest point End Pass type
(mag) Time Alt. Az. Time Alt. Az. Time Alt. Az.
23 Jul 7.5 21:06:09 10° S 21:10:25 68° WSW 21:14:44 10° NNW visible
24 Jul 8.4 21:23:36 10° S 21:27:39 41° W 21:31:44 10° NNW visible
25 Jul 9.2 21:41:19 10° SSW 21:44:54 26° W 21:48:32 10° NW visible
26 Jul 9.8 21:59:29 10° SW 22:02:13 16° W 22:04:57 10° NW visible
29 Jul 7.9 21:13:17 10° S 21:17:29 54° W 21:21:44 10° NNW visible
30 Jul 8.8 21:30:50 10° SSW 21:34:43 33° W 21:38:39 10° NNW visible
31 Jul 9.5 21:48:44 10° SW 21:52:00 21° W 21:55:19 10° NW visible
